Home > Weather > Victoria > Past weeks

Flag for Canada Past Weather in Victoria, British Columbia, Canada — Yesterday and Last 2 Weeks

Now
68 °F

Partly sunny.


Feels Like: 68 °F
Forecast: 49 / 62 °F
Wind: 6 mph from Southeast

Location: Victoria Int. Airportb. C.

Current Time: May 30, 2016 at 3:26:44 PM

Latest Report: May 30, 2016 at 3:00 PM


Visibility: 30 mi

Pressure: 30.27 "Hg

Humidity: 43%

Dew Point: 45 °F

Location of VictoriaLocation

Past Weather in Victoria — Graph

°F

Victoria Temperature Yesterday

Maximum temperature yesterday: 63 °F (at 2:00 PM)
Minimum temperature yesterday: 52 °F (at 12:00 AM)
Average temperature yesterday: 57 °F

High & Low Weather Summary for the Past Weeks

 TemperatureHumidityPressure
High66 °F (May 18, 12:00 PM)100% (May 28, 4:50 AM)30.32 "Hg (May 28, 4:50 AM)
Low46 °F (May 20, 3:00 AM)39% (May 27, 4:00 PM)29.73 "Hg (May 21, 5:00 AM)
Average57 °F70%30.02 "Hg
* Reported May 15 2:00 PM — May 30 2:00 PM, Victoria, Weather by CustomWeather, © 2016

Note: Actual official high and low records may vary slightly from our data, if they occured in-between our weather recording intervals... More about our weather records

Advertising

Victoria Weather History for the Previous 24 Hours

Scroll right to see more
 ConditionsComfort  
Time TempWeatherWind HumidityBarometerVisibility
2:00 PM
Mon, May 30
66 °FScattered clouds.7 mph52%30.28 "Hg30 mi
1:00 PM64 °FScattered clouds.5 mph52%30.29 "Hg30 mi
12:00 PM63 °FScattered clouds.8 mph59%30.30 "Hg30 mi
11:00 AM63 °FPassing clouds.8 mph64%30.31 "Hg30 mi
10:00 AM61 °FPassing clouds.3 mph68%30.31 "Hg30 mi
9:00 AM59 °FPassing clouds.5 mph68%30.32 "Hg30 mi
8:00 AM55 °FPassing clouds.7 mph72%30.31 "Hg30 mi
7:00 AM52 °FScattered clouds.6 mph77%30.30 "Hg30 mi
6:00 AM48 °FPassing clouds.7 mph87%30.29 "Hg30 mi
5:00 AM48 °FPassing clouds.6 mph87%30.28 "Hg20 mi
4:00 AM50 °FPassing clouds.8 mph82%30.27 "Hg15 mi
3:00 AM52 °FPassing clouds.7 mph77%30.27 "Hg15 mi
2:00 AM52 °FPassing clouds.8 mph77%30.25 "Hg15 mi
1:00 AM54 °FClear.8 mph72%30.24 "Hg15 mi
12:00 AM54 °FClear.9 mph77%30.23 "Hg15 mi
11:00 PM
Sun, May 29
54 °FPassing clouds.7 mph77%30.22 "Hg15 mi
10:00 PM54 °FPassing clouds.6 mph77%30.20 "Hg20 mi
9:00 PM57 °FPassing clouds.2 mph63%30.18 "Hg30 mi
8:00 PM61 °FPassing clouds.5 mph52%30.18 "Hg30 mi
7:00 PM61 °FPassing clouds.6 mph52%30.17 "Hg30 mi
6:00 PM63 °FPassing clouds.8 mph49%30.17 "Hg30 mi
5:00 PM63 °FPassing clouds.8 mph49%30.16 "Hg30 mi
4:00 PM63 °FScattered clouds.10 mph49%30.15 "Hg30 mi
3:00 PM63 °FPassing clouds.10 mph56%30.15 "Hg30 mi
Weather by CustomWeather, © 2016

See weather overviewHow to use our weather pages